Regional Weather Roundup
Issued by NWS Jackson, KY

Home | Current Version | Previous Version | Graphics & Text | Print | Product List | Glossary On
Versions: 1 2 3 4 5 6 7 8 9 10 11 12 13 14 15 16 17 18 19 20 21 22 23 24 25 26 27 28 29 30 31 32 33 34 35 36 37 38 39 40 41 42 43 44 45 46 47 48
000
ASUS43 KJKL 260010
RWRJKL

EAST KENTUCKY HOURLY WEATHER ROUNDUP
NATIONAL WEATHER SERVICE JACKSON KY
800 PM EDT SAT APR 25 2015

NOTE: "FAIR" INDICATES FEW OR NO CLOUDS BELOW 12,000 FEET WITH
NO SIGNIFICANT WEATHER AND/OR OBSTRUCTIONS TO VISIBILITY.

* THESE REPORTS ARE NOT UNDER NWS QUALITY CONTROL AND MAY NOT
  REPORT WEATHER SUCH AS PRECIPITATION AND FOG.

KYZ079-080-083-085-087-088-110-112-115-119-120-260100
...EASTERN KENTUCKY...

CITY           SKY/WX    TMP DP  RH WIND       PRES   REMARKS
JACKSON        CLOUDY    52  50  93 VRB3      29.55F
6HR MIN TEMP:  52; 6HR MAX TEMP:  71;

LONDON         CLEAR     77  48  35 W9        29.48F
6HR MIN TEMP:  69; 6HR MAX TEMP:  81;

SOMERSET*      MOCLDY    73  52  46 SW7       29.48F
MONTICELLO*    CLEAR     76  56  49 SW12      29.49F
6HR MIN TEMP:  73; 6HR MAX TEMP:  82;

MIDDLESBORO*   CLEAR     70  62  75 S6        29.52F
6HR MIN TEMP:  61; 6HR MAX TEMP:  73;

HARLAN APT*    CLEAR     70  55  60 W3        29.52F
HAZARD APT*    MOCLDY    57  54  88 NE6       29.54R
BLACK MTN*       N/A     57  55  94 SW7         N/A
PIKEVILLE APT* CLOUDY    54  52  94 N12G17    29.56S
BIG SANDY*     CLOUDY    50  50  97 N9        29.59S
6HR MIN TEMP:  50; 6HR MAX TEMP:  62;

MOREHEAD APT*  CLOUDY    48  45  87 NE9       29.61F
$$

KYZ035-036-041-042-044-050-067-078-099-260100
...CENTRAL KENTUCKY...

CITY           SKY/WX    TMP DP  RH WIND       PRES   REMARKS
MT STERLING*   CLOUDY    46  46 100 E12G17    29.58F FOG
FLEMING/MASON* CLOUDY    43  43 100 NE12      29.61F
DANVILLE*      CLOUDY    54  54 100 N15G22    29.54R
RICHMOND*      CLOUDY    55  52  88 NE9G17    29.53F
LEXINGTON      LGT RAIN  48  46  93 NE17      29.55S
6HR MIN TEMP:  48; 6HR MAX TEMP:  61; 6HR PCP:  0.01;

FRANKFORT      LGT RAIN  49  45  86 NE14G20   29.55F
6HR MIN TEMP:  49; 6HR MAX TEMP:  56; 6HR PCP: TRACE;

$$

KYZ091>093-OHZ055-061-077-WVZ005-015-034-035-042-260100
...SOUTHERN OHIO/WEST VIRGINIA...

CITY           SKY/WX    TMP DP  RH WIND       PRES   REMARKS
COVINGTON      CLOUDY    45  45 100 NE20G25   29.61F
COLUMBUS       CLOUDY    44  41  89 N6        29.72R
DAYTON         MOCLDY    45  40  82 E12       29.68S
WILMINGTON     CLOUDY    43  39  86 NE15G26   29.66R
HUNTINGTON     CLOUDY    46  45  96 NE9       29.62S
CHARLESTON     LGT RAIN  48  46  93 N5        29.63R VSB 1
PINEVILLE*     PTCLDY    56  53  90 MISG      29.61S
BECKLEY        MOCLDY    45  42  89 SE8       29.61R
BLUEFIELD      PTCLDY    55  45  68 N6        29.59F
$$

VAZ002-007-008-TNZ017-027-036-066-071-260100
...SOUTHWEST VIRGINIA/EAST TENNESSEE...

CITY           SKY/WX    TMP DP  RH WIND       PRES   REMARKS
WISE*          CLEAR     63  54  72 SW12      29.59F
JONESVILLE*    CLEAR     70  61  73 SW9       29.55F
ABINGDON*      CLOUDY    65  53  65 SE3       29.58F
BRISTOL        PTCLDY    67  58  72 SW7       29.56F
KNOXVILLE      PTCLDY    73  61  65 SW22G30   29.54F
OAK RIDGE      CLEAR     74  62  66 S6        29.54F
CROSSVILLE     CLEAR     73  52  47 SW9       29.57F
NASHVILLE      PTCLDY    79  60  52 S14G23    29.47F
$$

...KEY TO REMARKS...
VSB - VISIBILITY IN MILES
WCI - WIND CHILL INDEX
HX  - HEAT INDEX

$$


USA.gov is the U.S. government's official web portal to all federal, state and local government web resources and services.